Regional Weather Roundup
Issued by NWS

Home | Current Version | Previous Version | Text Only | Print | Product List | Glossary On
Versions: 1 2 3 4 5 6 7 8 9 10 11 12 13 14 15 16 17 18 19 20 21 22 23 24 25 26 27 28 29 30 31 32 33 34 35 36 37 38 39 40 41 42 43 44 45 46 47 48 49 50
000
ASUS45 KPSR 021300
RWRAZ

PRELIMINARY ARIZONA REGIONAL HOURLY WEATHER ROUNDUP
NATIONAL WEATHER SERVICE PHOENIX AZ
600 AM MST TUE SEP 02 2014

NOTE: FAIR INDICATES FEW OR NO CLOUDS BELOW 12,000 FEET WITH NO
SIGNIFICANT WEATHER AND/OR OBSTRUCTIONS TO VISIBILITY.

AZZ001>003-036-021400-
NORTHWEST ARIZONA

CITY           SKY/WX    TMP DP  RH WIND       PRES   REMARKS
KINGMAN        CLEAR     69  36  29 SE5       29.98R
$$

AZZ004>008-015-016-018-021400-
NORTH CENTRAL ARIZONA

CITY           SKY/WX    TMP DP  RH WIND       PRES   REMARKS
GRAND CANYON   CLEAR     46  37  71 NE3       30.25
WILLIAMS       CLEAR     50  39  66 S9        30.30S
PRESCOTT       CLEAR     57  41  55 SW5       30.12R
FLAGSTAFF      CLEAR     46  39  76 CALM      30.27R
PAYSON         CLEAR     63  37  39 CALM      30.14S
PAGE           CLEAR     72  38  29 S3        30.04R
$$

AZZ009>014-017-021400-
NORTHEAST ARIZONA

CITY           SKY/WX    TMP DP  RH WIND       PRES   REMARKS
WINSLOW        NOT AVBL
SAINT JOHNS    CLEAR     56  39  53 CALM      30.18R
WINDOW ROCK    CLEAR     46  31  55 NE3       30.25
$$

AZZ023-021400-
GREATER PHOENIX AREA

CITY           SKY/WX    TMP DP  RH WIND       PRES   REMARKS
PHOENIX        CLEAR     83  46  27 E5        29.79S
GLENDALE       CLEAR     81  48  32 N3        29.82
DEER VALLEY    CLEAR     78  43  28 N7        29.82R
SCOTTSDALE     CLEAR     78  52  40 CALM      29.83S
MESA-FALCON    PTCLDY    81  43  26 N9        29.82
MESA-GATEWAY   CLEAR     73  43  33 E7        29.84R
CHANDLER       CLEAR     75  48  38 CALM      29.82
$$

AZZ027-028-021400-
SOUTHWEST MARICOPA COUNTY AND PINAL COUNTY

CITY           SKY/WX    TMP DP  RH WIND       PRES   REMARKS
CASA GRANDE    CLEAR     75  37  25 CALM      29.84R
$$

AZZ503-504-507>509-021400-
SOUTHEAST ARIZONA

CITY           SKY/WX    TMP DP  RH WIND       PRES   REMARKS
TUCSON         CLEAR     74  52  46 S9        29.95R
DAVIS-MONTHAN  CLEAR     72  51  46 SE8       29.94R
NOGALES        CLEAR     61  53  75 CALM      30.05R
SIERRA VISTA   CLEAR     72  48  43 SW7       30.10R
SAFFORD        CLEAR     64  41  42 SE3       29.97R
$$

AZZ020-021-025-026-031-021400-
SOUTHWEST ARIZONA

CITY           SKY/WX    TMP DP  RH WIND       PRES   REMARKS
YUMA           CLEAR     80  52  37 CALM      29.71S
$$

CAZ031-033-041-043-047-048-061-021400-
SOUTHERN CALIFORNIA

CITY           SKY/WX    TMP DP  RH WIND       PRES   REMARKS
DOWNTOWN L.A.  CLOUDY    70  62  76 E3        29.85R
L.A. AIRPORT   MOCLDY    70  62  76 E6        29.85S
SAN DIEGO      MOCLDY    70  61  73 SE5       29.86S
BURBANK        CLOUDY    66  62  87 S3        29.86R
ONTARIO        MOCLDY    65  61  87 VRB3      29.87R FOG
RIVERSIDE      CLOUDY    64  62  93 CALM      29.87S
PALM SPRINGS   CLEAR     79  40  24 CALM      29.76R
EL CENTRO NAS  CLEAR     78  52  39 VRB5      29.70
IMPERIAL       CLEAR     74  54  49 CALM      29.70R
BLYTHE         CLEAR     78  50  37 N7        29.73S
$$

NVZ020-UTZ003-021400-
SOUTHERN NEVADA-UTAH

CITY           SKY/WX    TMP DP  RH WIND       PRES   REMARKS
LAS VEGAS      NOT AVBL
SALT LAKE CITY CLEAR     58  40  51 CALM      30.02R
$$

NMZ009-TXZ055-021400-
NEW MEXICO-WEST TEXAS

CITY           SKY/WX    TMP DP  RH WIND       PRES   REMARKS
ALBUQUERQUE    CLEAR     66  40  38 NE5       30.15R
EL PASO        PTCLDY    69  46  43 S7        30.00R
$$


........................KEY........................
SKY/WX - SKY CONDITION/WEATHER
TMP    - TEMPERATURE IN FAHRENHEIT
DP     - DEW POINT IN FAHRENHEIT
RH     - RELATIVE HUMIDITY IN PERCENT
WIND   - DIRECTION AND SPEED IN MILES PER HOUR (MPH)
VRB    - VARIABLE WIND DIRECTION
PRES   - MEAN SEA LEVEL PRESSURE IN INCHES OF MERCURY
         F - FALLING PRESSURE   R - RISING PRESSURE
         S - STEADY PRESSURE
VSB    - VISIBILITY IN MILES
HX     - HEAT INDEX IN FAHRENHEIT
WCI    - WIND CHILL INDEX IN FAHRENHEIT
TC     - TEMPERATURE IN CELSIUS WHICH IS ALSO KNOWN AS
         TEMPERATURE IN CENTIGRADE
AFB    - AIR FORCE BASE
         LUKE AFB IS LUKE AIR FORCE BASE
         DAVIS-MONTHAN IS DAVIS-MONTHAN AIR FORCE BASE
NAS    - NAVAL AIR STATION
         EL CENTRO NAS IS EL CENTRO NAVAL AIR STATION
N/A    - NOT AVAILABLE


USA.gov is the U.S. government's official web portal to all federal, state and local government web resources and services.